Weather in Obukhovskoe

Russia / Sverdlovsk Oblast     56°50′00″N   62°36′30″E
temp.,
°C
wind,
m/s
gust,
m/s
humid.,
%
clouds,
%
prec.,
mm/h
press.,
hPa
HPBL,
m
26 july, mon
mon2623:00+11wnw34625 0.0 101649
02:00+12nw2662100 0.0 1017165
05:00+9nw36745 0.0 101897
08:00+15nw47486 0.0 1018574
11:00+17wnw5738100 0.0 10182324
14:00+17wnw5736100 0.0 10181607
17:00+19wnw663497 0.0 10172218
20:00+17w374315 0.0 1016303
27 july, tue
tue2723:00+14wsw495568 0.0 1016269
02:00+10wsw38787 0.0 1015142
05:00+10wsw378295 0.0 1014122
08:00+16wsw5115674 0.0 1013529
11:00+17w5955100 0.0 1011877
14:00+14w598766 0.8 1011728
17:00+20wnw685427 1.1 10091721
20:00+17nw4859100 0.0 1009532
28 july, wed
wed2823:00+12nw4118436 0.1 1010295
02:00+9wnw37815 0.0 1010145
05:00+6wnw36915 0.0 1010106
08:00+13wnw475957 0.0 1010615
11:00+16wnw6847100 0.1 10091892
14:00+17nw794799 0.9 10082023
17:00+16nw694895 1.6 10092000
20:00+14wnw584676 0.1 1010623
29 july, thu
thu2923:00+9wnw496999 0.1 1012199
02:00+7w3478100 0.0 101166
05:00+7wsw347575 0.0 101185
08:00+11w2360100 0.0 1011283
11:00+12sw368474 0.6 1010459
14:00+20w475071 0.1 10081671
17:00+21wnw474327 0.1 10071450
20:00+18ssw486667 0.3 1007186
30 july, fri
fri3023:00+13w229389 1.5 100726
02:00+12ssw3695100 0.1 1006104
05:00+12sw389610 0.1 1006152
08:00+17w478675 0.0 1006400
11:00+23wsw4557100 0.0 10061080
14:00+24wsw3552100 0.9 10051651
17:00+22ssw4569100 2.8 1005774
20:00+19ssw3685100 0.4 1004138